Fairbanks Eiels, AK

2:32 PM AKDT on May 25, 2017 (GMT -0800)
Eielson Air Force Base

Weather History for PAEI - September, 2013

Change the Weather History Date:

Saturday, September 21, 2013

  Actual Average Record
Temperature  
Mean Temperature 30 °F -  
Max Temperature 42 °F 49 °F 66 °F (2011)
Min Temperature 18 °F 33 °F 14 °F (1972)
Degree Days  
Heating Degree Days 35    
Moisture  
Dew Point 21 °F    
Average Humidity 69    
Maximum Humidity 91    
Minimum Humidity 44    
Precipitation  
Precipitation 0.00 in - - ()
Sea Level Pressure  
Sea Level Pressure 29.17 in    
Wind  
Wind Speed 3 mph (North)    
Max Wind Speed 8 mph    
Max Gust Speed -    
Visibility 10 miles    
Events      
Averages and records for this station are not official NWS values.
T = Trace of Precipitation, MM = Missing Value Source: NWS Daily Summary

Daily Weather History Graph

Daily Weather History Graph

Search for Another Location

Airport or City:

Trip Planner

Search our weather history database for the weather conditions in past years. The results will help you decide how hot, cold, wet, or windy it might be!

Date:

Astronomy

Sep. 21, 2013 Rise Set
Actual Time 7:29 AM AKDT 7:51 PM AKDT
Civil Twilight 6:40 AM AKDT 8:40 PM AKDT
Nautical Twilight 5:40 AM AKDT 9:39 PM AKDT
Astronomical Twilight 4:29 AM AKDT 10:48 PM AKDT
Moon 7:51 PM AKDT (9/21) 11:08 AM AKDT (9/21)
Length of Visible Light 13h 59m
Length of Day
12h 21m
Waning Gibbous, 93% of the Moon is Illuminated
Sep 21
Waning Gibbous
Sep 26
Last Quarter
Oct 4
New
Oct 11
First Quarter
Oct 18
Full

Hourly Weather History & Observations

Time (AKDT) Temp. Windchill Dew Point Humidity Pressure Visibility Wind Dir Wind Speed Gust Speed Precip Events Conditions
12:58 AM 23.7 °F - 19.9 °F 85% 29.21 in 10.0 mi Calm Calm - N/A   Partly Cloudy
1:58 AM 23.5 °F - 20.8 °F 89% 29.19 in 10.0 mi North 2.3 mph - N/A   Partly Cloudy
2:58 AM 18.7 °F - 16.0 °F 89% 29.17 in 10.0 mi Calm Calm - N/A   Clear
3:58 AM 21.2 °F 16.4 °F 19.0 °F 91% 29.15 in 10.0 mi North 3.5 mph - N/A   Clear
4:58 AM 19.4 °F - 16.3 °F 88% 29.15 in 10.0 mi North 2.3 mph - N/A   Mostly Cloudy
5:13 AM 21.2 °F 14.9 °F 17.6 °F 86% 29.12 in 10.0 mi North 4.6 mph - N/A   Partly Cloudy
5:58 AM 22.5 °F 16.3 °F 18.5 °F 85% 29.15 in 10.0 mi Variable 4.6 mph - N/A   Clear
6:58 AM 19.8 °F 9.9 °F 16.3 °F 87% 29.14 in 10.0 mi North 8.1 mph - N/A   Clear
7:58 AM 20.7 °F 11.9 °F 17.1 °F 86% 29.14 in 10.0 mi NNW 6.9 mph - N/A   Clear
8:58 AM 22.8 °F 16.7 °F 18.9 °F 85% 29.15 in 10.0 mi Variable 4.6 mph - N/A   Clear
9:58 AM 27.9 °F 22.6 °F 22.5 °F 80% 29.15 in 10.0 mi Variable 4.6 mph - N/A   Clear
10:58 AM 31.1 °F 26.4 °F 23.7 °F 74% 29.15 in 10.0 mi Variable 4.6 mph - N/A   Partly Cloudy
11:28 AM 35.6 °F 30.7 °F 24.8 °F 65% 29.12 in 10.0 mi Variable 5.8 mph - N/A   Mostly Cloudy
11:58 AM 36.9 °F 31.4 °F 22.1 °F 55% 29.16 in 10.0 mi Variable 6.9 mph - N/A   Overcast
12:43 PM 39.2 °F 35.0 °F 21.2 °F 49% 29.13 in 10.0 mi Variable 5.8 mph - N/A   Mostly Cloudy
12:58 PM 39.4 °F 33.8 °F 20.8 °F 47% 29.16 in 10.0 mi NNE 8.1 mph - N/A   Mostly Cloudy
1:13 PM 39.2 °F 37.0 °F 21.2 °F 49% 29.13 in 10.0 mi NNE 3.5 mph - N/A   Scattered Clouds
1:28 PM 39.2 °F 35.0 °F 21.2 °F 49% 29.13 in 10.0 mi NNE 5.8 mph - N/A   Mostly Cloudy
1:43 PM 41.0 °F 38.0 °F 21.2 °F 45% 29.13 in 10.0 mi Variable 4.6 mph - N/A   Scattered Clouds
1:58 PM 39.6 °F - 21.0 °F 48% 29.16 in 10.0 mi Calm Calm - N/A   Clear
2:58 PM 39.6 °F - 21.4 °F 48% 29.17 in 10.0 mi Calm Calm - N/A   Clear
3:58 PM 42.1 °F - 21.6 °F 44% 29.17 in 10.0 mi Calm Calm - N/A   Clear
4:58 PM 40.8 °F 38.8 °F 20.8 °F 45% 29.18 in 10.0 mi Variable 3.5 mph - N/A   Clear
5:58 PM 39.6 °F 36.3 °F 22.1 °F 50% 29.19 in 10.0 mi Variable 4.6 mph - N/A   Mostly Cloudy
6:58 PM 36.3 °F 33.7 °F 22.3 °F 57% 29.20 in 10.0 mi WNW 3.5 mph - N/A   Partly Cloudy
7:58 PM 32.0 °F 27.5 °F 22.3 °F 67% 29.20 in 10.0 mi Variable 4.6 mph - N/A   Mostly Cloudy
8:58 PM 31.5 °F - 21.2 °F 66% 29.22 in 10.0 mi Calm Calm - N/A   Overcast
9:58 PM 27.9 °F - 22.1 °F 79% 29.23 in 10.0 mi Calm Calm - N/A   Overcast
10:58 PM 26.4 °F - 22.5 °F 85% 29.24 in 10.0 mi Calm Calm - N/A   Overcast
11:28 PM 28.4 °F - 23.0 °F 80% 29.20 in 10.0 mi Calm Calm - N/A   Overcast
11:58 PM 28.9 °F - 22.6 °F 77% 29.24 in 10.0 mi NNW 1.2 mph - N/A   Overcast